����,���ϕ���(m/s),���ϕ���,�ő�u�ԕ���(m/s),�ő啗��������,�C��(��),���x(%),10���Ԉړ��ώZ�J��(mm),1���Ԉړ��ώZ�J��(mm),���J��(mm),�݌v�J��(mm),����(���ώZ)(MJ/m2),����(���ώZ)(min),���n�C��(hPa),�C�ʋC��(hPa)
2022-06-20T00:00:00+09:00,2.7,��,4.5,��,23.2,90.5,0,0,0,0,23.23,529,996,1009.4
2022-06-20T00:01:00+09:00,2.6,��,4.5,��,23.2,90.8,0,0,0,0,0,0,996,1009.4
2022-06-20T00:02:00+09:00,2.7,��,4.5,��,23.2,90.7,0,0,0,0,0,0,995.9,1009.3
2022-06-20T00:03:00+09:00,2.8,��,4.5,��,23.2,90.7,0,0,0,0,0,0,995.9,1009.3
2022-06-20T00:04:00+09:00,2.7,��,4.5,��,23.2,90.7,0,0,0,0,0,0,995.9,1009.3
2022-06-20T00:05:00+09:00,2.8,��,4.5,��,23.1,90.8,0,0,0,0,0,0,995.9,1009.3
2022-06-20T00:06:00+09:00,2.9,��,4.5,��,23.1,90.9,0,0,0,0,0,0,995.9,1009.3
2022-06-20T00:07:00+09:00,2.9,��,4.5,��,23.1,90.9,0,0,0,0,0,0,995.9,1009.3
2022-06-20T00:08:00+09:00,3,��,4.5,��,23.1,91,0,0,0,0,0,0,995.9,1009.3
2022-06-20T00:09:00+09:00,2.9,��,4.5,��,23.1,91.2,0,0,0,0,0,0,995.9,1009.3
2022-06-20T00:10:00+09:00,2.9,��,4.5,��,23.1,91.3,0,0,0,0,0,0,995.9,1009.3
2022-06-20T00:11:00+09:00,2.9,��,4.5,��,23.2,91.4,0,0,0,0,0,0,995.9,1009.3
2022-06-20T00:12:00+09:00,2.7,��,4.5,��,23.2,91.4,0,0,0,0,0,0,995.9,1009.3
2022-06-20T00:13:00+09:00,2.6,��,4.3,��,23.1,91.3,0,0,0,0,0,0,995.9,1009.3
2022-06-20T00:14:00+09:00,2.6,��,4.3,��,23.1,91.2,0,0,0,0,0,0,995.9,1009.3
2022-06-20T00:15:00+09:00,2.6,��,4.2,��쐼,23.1,91.3,0,0,0,0,0,0,995.9,1009.3
2022-06-20T00:16:00+09:00,2.7,��,4.2,��쐼,23.1,91.3,0,0,0,0,0,0,995.9,1009.3
2022-06-20T00:17:00+09:00,2.7,��,4.2,��쐼,23.1,91.2,0,0,0,0,0,0,995.9,1009.3
2022-06-20T00:18:00+09:00,2.7,��,4.5,��쐼,23.1,91.2,0,0,0,0,0,0,995.9,1009.3
2022-06-20T00:19:00+09:00,2.8,��,4.8,��,23.1,91.1,0,0,0,0,0,0,995.9,1009.3
2022-06-20T00:20:00+09:00,3,��,5.2,��쐼,23.1,91.1,0,0,0,0,0,0,995.9,1009.3
2022-06-20T00:21:00+09:00,3.2,��,5.2,��쐼,23.1,91.2,0,0,0,0,0,0,995.9,1009.3
2022-06-20T00:22:00+09:00,3.4,��,5.2,��쐼,23.1,91.2,0,0,0,0,0,0,995.9,1009.3
2022-06-20T00:23:00+09:00,3.5,��쐼,5.2,��쐼,23.1,91.1,0,0,0,0,0,0,995.9,1009.3
2022-06-20T00:24:00+09:00,3.5,��쐼,5.2,��쐼,23.1,91.1,0,0,0,0,0,0,995.9,1009.3
2022-06-20T00:25:00+09:00,3.6,��쐼,5.2,��쐼,23.1,91.1,0,0,0,0,0,0,995.9,1009.3
2022-06-20T00:26:00+09:00,3.6,��쐼,5.2,��쐼,23.1,91,0,0,0,0,0,0,995.9,1009.3
2022-06-20T00:27:00+09:00,3.6,��쐼,5.2,��쐼,23.1,91.2,0,0,0,0,0,0,995.9,1009.3
2022-06-20T00:28:00+09:00,3.5,��쐼,5.2,��쐼,23.1,91.2,0,0,0,0,0,0,995.9,1009.3
2022-06-20T00:29:00+09:00,3.3,��,5.2,��쐼,23.2,91.2,0,0,0,0,0,0,995.8,1009.2
2022-06-20T00:30:00+09:00,3.3,��,4.7,��쐼,23.2,91.1,0,0,0,0,0,0,995.8,1009.2
2022-06-20T00:31:00+09:00,3.2,��,4.5,��쐼,23.1,91.1,0,0,0,0,0,0,995.8,1009.2
2022-06-20T00:32:00+09:00,3.1,��,4.5,��쐼,23.1,91.1,0,0,0,0,0,0,995.8,1009.2
2022-06-20T00:33:00+09:00,2.9,��,4.5,��쐼,23.1,91.2,0,0,0,0,0,0,995.8,1009.2
2022-06-20T00:34:00+09:00,2.8,��,4.5,��쐼,23.2,91.4,0,0,0,0,0,0,995.8,1009.2
2022-06-20T00:35:00+09:00,2.7,��,4.4,��쐼,23.1,91.2,0,0,0,0,0,0,995.8,1009.2
2022-06-20T00:36:00+09:00,2.7,��,4.1,��,23.1,91.1,0,0,0,0,0,0,995.9,1009.3
2022-06-20T00:37:00+09:00,2.7,��,4.1,��,23.1,91.2,0,0,0,0,0,0,995.9,1009.3
2022-06-20T00:38:00+09:00,2.7,��,4.1,��,23.1,91.4,0,0,0,0,0,0,995.9,1009.3
2022-06-20T00:39:00+09:00,2.8,��,4.1,��,23.1,91.5,0,0,0,0,0,0,995.9,1009.3
2022-06-20T00:40:00+09:00,2.8,��,4.1,��,23.1,91.5,0,0,0,0,0,0,995.9,1009.3
2022-06-20T00:41:00+09:00,2.8,��,4.1,��,23.1,91.5,0,0,0,0,0,0,995.9,1009.3
2022-06-20T00:42:00+09:00,2.8,��,4.1,��,23.1,91.7,0,0,0,0,0,0,995.8,1009.2
2022-06-20T00:43:00+09:00,2.8,��,4.1,��,23.1,91.7,0,0,0,0,0,0,995.8,1009.2
2022-06-20T00:44:00+09:00,2.8,��,4.1,��,23.1,91.6,0,0,0,0,0,0,995.8,1009.2
2022-06-20T00:45:00+09:00,2.8,��,4.1,��,23.1,91.7,0,0,0,0,0,0,995.8,1009.2
2022-06-20T00:46:00+09:00,2.7,��,4.1,��,23.1,91.7,0,0,0,0,0,0,995.8,1009.2
2022-06-20T00:47:00+09:00,2.6,��,4.1,��,23.1,91.8,0,0,0,0,0,0,995.8,1009.2
2022-06-20T00:48:00+09:00,2.6,��,4.1,��,23.2,91.6,0,0,0,0,0,0,995.8,1009.2
2022-06-20T00:49:00+09:00,2.4,��,4.1,��,23.2,91.6,0,0,0,0,0,0,995.8,1009.2
2022-06-20T00:50:00+09:00,2.2,��,4.1,��,23.1,91.5,0,0,0,0,0,0,995.8,1009.2
2022-06-20T00:51:00+09:00,2.2,��,4,��,23.1,91.4,0,0,0,0,0,0,995.8,1009.2
2022-06-20T00:52:00+09:00,2.3,��,4,��,23.1,91.3,0,0,0,0,0,0,995.7,1009.1
2022-06-20T00:53:00+09:00,2.3,��,4.3,��,23.1,91.4,0,0,0,0,0,0,995.7,1009.1
2022-06-20T00:54:00+09:00,2.4,��,4.3,��,23.1,91.6,0,0,0,0,0,0,995.6,1009
2022-06-20T00:55:00+09:00,2.3,��,4.3,��,23.1,91.6,0,0,0,0,0,0,995.6,1009
2022-06-20T00:56:00+09:00,2.3,��,4.3,��,23,91.6,0,0,0,0,0,0,995.6,1009
2022-06-20T00:57:00+09:00,2.3,��,4.3,��,23,91.7,0,0,0,0,0,0,995.6,1009
2022-06-20T00:58:00+09:00,2.4,��,4.3,��,23,91.8,0,0,0,0,0,0,995.6,1009
2022-06-20T00:59:00+09:00,2.4,��,4.3,��,23,92,0,0,0,0,0,0,995.6,1009
2022-06-20T01:00:00+09:00,2.5,��,4.3,��,23.1,92.1,0,0,0,0,0,0,995.6,1009
2022-06-20T01:01:00+09:00,2.5,��,4.3,��,23.1,92.1,0,0,0,0,0,0,995.6,1009
2022-06-20T01:02:00+09:00,2.4,��,4.3,��,23.1,92,0,0,0,0,0,0,995.6,1009
2022-06-20T01:03:00+09:00,2.4,��,4.2,��,23.1,91.9,0,0,0,0,0,0,995.6,1009
2022-06-20T01:04:00+09:00,2.2,��,4.2,��,23.1,91.9,0,0,0,0,0,0,995.6,1009
2022-06-20T01:05:00+09:00,2.1,��,4.1,��쐼,23.1,91.8,0,0,0,0,0,0,995.6,1009
2022-06-20T01:06:00+09:00,2,��,4.1,��쐼,23.1,91.8,0,0,0,0,0,0,995.6,1009
2022-06-20T01:07:00+09:00,1.9,��,4.1,��쐼,23.1,91.8,0,0,0,0,0,0,995.6,1009
2022-06-20T01:08:00+09:00,1.8,��,4.1,��쐼,23.1,91.8,0,0,0,0,0,0,995.6,1009
2022-06-20T01:09:00+09:00,1.7,��,4.1,��쐼,23.1,91.7,0,0,0,0,0,0,995.6,1009
2022-06-20T01:10:00+09:00,1.6,��,3.5,��쐼,23.1,91.9,0,0,0,0,0,0,995.6,1009
2022-06-20T01:11:00+09:00,1.5,��,3,��쐼,23.2,92,0,0,0,0,0,0,995.6,1009
2022-06-20T01:12:00+09:00,1.4,��,3,��쐼,23.1,91.8,0,0,0,0,0,0,995.6,1009
2022-06-20T01:13:00+09:00,1.3,��,2.9,��,23.2,91.6,0,0,0,0,0,0,995.6,1009
2022-06-20T01:14:00+09:00,1.4,��,2.9,��,23.1,91.4,0,0,0,0,0,0,995.6,1009
2022-06-20T01:15:00+09:00,1.4,��,2.9,��,23.1,91.4,0,0,0,0,0,0,995.6,1009
2022-06-20T01:16:00+09:00,1.5,��,2.9,��,23.1,91.5,0,0,0,0,0,0,995.6,1009
2022-06-20T01:17:00+09:00,1.4,��,2.9,��,23.1,91.5,0,0,0,0,0,0,995.6,1009
2022-06-20T01:18:00+09:00,1.3,��,2.6,��,23.1,91.5,0,0,0,0,0,0,995.5,1008.9
2022-06-20T01:19:00+09:00,1.2,��,2.6,��,23.1,91.6,0,0,0,0,0,0,995.6,1009
2022-06-20T01:20:00+09:00,1.1,��,2.6,��,23.1,91.7,0,0,0,0,0,0,995.6,1009
2022-06-20T01:21:00+09:00,1,��,2.6,��,23.1,91.6,0,0,0,0,0,0,995.6,1009
2022-06-20T01:22:00+09:00,1,��,2.6,��,23.1,91.6,0,0,0,0,0,0,995.5,1008.9
2022-06-20T01:23:00+09:00,1,��,2.6,��,23.1,91.7,0,0,0,0,0,0,995.5,1008.9
2022-06-20T01:24:00+09:00,0.9,��,2.6,��,23,91.7,0,0,0,0,0,0,995.5,1008.9
2022-06-20T01:25:00+09:00,0.8,��,2.6,��,23,91.8,0,0,0,0,0,0,995.5,1008.9
2022-06-20T01:26:00+09:00,0.8,��,2.6,��,23.1,91.9,0,0,0,0,0,0,995.5,1008.9
2022-06-20T01:27:00+09:00,0.7,��,1.5,��,23,92,0,0,0,0,0,0,995.5,1008.9
2022-06-20T01:28:00+09:00,0.7,��,1.5,��,23.1,92,0,0,0,0,0,0,995.5,1008.9
2022-06-20T01:29:00+09:00,0.6,��,1.5,��,23.1,92.2,0,0,0,0,0,0,995.5,1008.9
2022-06-20T01:30:00+09:00,0.7,��,1.5,��,23,92,0,0,0,0,0,0,995.5,1008.9
2022-06-20T01:31:00+09:00,0.6,��,1.5,��,23,91.8,0,0,0,0,0,0,995.4,1008.8
2022-06-20T01:32:00+09:00,0.6,��,1.7,��쐼,23,91.9,0,0,0,0,0,0,995.4,1008.8
2022-06-20T01:33:00+09:00,0.8,��,2.6,��,23,92,0,0,0,0,0,0,995.4,1008.8
2022-06-20T01:34:00+09:00,0.7,��,2.6,��,23,92.2,0,0,0,0,0,0,995.4,1008.8
2022-06-20T01:35:00+09:00,0.8,��,2.6,��,23,92.2,0,0,0,0,0,0,995.4,1008.8
2022-06-20T01:36:00+09:00,0.8,��,2.6,��,23,92.1,0,0,0,0,0,0,995.3,1008.7
2022-06-20T01:37:00+09:00,0.8,��,2.6,��,23,92.1,0,0,0,0,0,0,995.3,1008.7
2022-06-20T01:38:00+09:00,0.9,��,3.3,��,23,92.2,0,0,0,0,0,0,995.3,1008.7
2022-06-20T01:39:00+09:00,1,��,3.3,��,23,92.3,0,0,0,0,0,0,995.3,1008.7
2022-06-20T01:40:00+09:00,1,��,3.3,��,23,92.2,0,0,0,0,0,0,995.3,1008.7
2022-06-20T01:41:00+09:00,1.1,��,3.3,��,23.1,92.4,0,0,0,0,0,0,995.2,1008.6
2022-06-20T01:42:00+09:00,1.1,��,3.3,��,23.1,92.2,0,0,0,0,0,0,995.2,1008.6
2022-06-20T01:43:00+09:00,1,��,3.3,��,23.1,91.9,0,0,0,0,0,0,995.2,1008.6
2022-06-20T01:44:00+09:00,1.1,��,3.3,��,23,91.7,0,0,0,0,0,0,995.2,1008.6
2022-06-20T01:45:00+09:00,1.2,��,3.3,��,23,91.8,0,0,0,0,0,0,995.2,1008.6
2022-06-20T01:46:00+09:00,1.3,��쐼,3.3,��,23.1,92,0,0,0,0,0,0,995.2,1008.6
2022-06-20T01:47:00+09:00,1.4,��쐼,3.3,��,23.1,92,0,0,0,0,0,0,995.2,1008.6
2022-06-20T01:48:00+09:00,1.4,��쐼,2.9,��,23,91.9,0,0,0,0,0,0,995.2,1008.6
2022-06-20T01:49:00+09:00,1.5,��쐼,2.9,��,23,92,0,0,0,0,0,0,995.2,1008.6
2022-06-20T01:50:00+09:00,1.6,��쐼,3,��,23,92.1,0,0,0,0,0,0,995.2,1008.6
2022-06-20T01:51:00+09:00,1.7,��쐼,3,��,23,92.1,0,0,0,0,0,0,995.2,1008.6
2022-06-20T01:52:00+09:00,1.7,��쐼,3,��,23,92.3,0,0,0,0,0,0,995.2,1008.6
2022-06-20T01:53:00+09:00,1.8,��쐼,3,��,23,92.3,0,0,0,0,0,0,995.1,1008.5
2022-06-20T01:54:00+09:00,1.8,��,3,��,23,92.2,0,0,0,0,0,0,995.1,1008.5
2022-06-20T01:55:00+09:00,1.8,��쐼,3,��,23,92.2,0,0,0,0,0,0,995.1,1008.5
2022-06-20T01:56:00+09:00,1.8,��쐼,3,��,23,92.2,0,0,0,0,0,0,995.1,1008.5
2022-06-20T01:57:00+09:00,1.9,��,3,��,23,92.3,0,0,0,0,0,0,995.1,1008.5
2022-06-20T01:58:00+09:00,1.9,��,3,��,23,92.1,0,0,0,0,0,0,995.1,1008.5
2022-06-20T01:59:00+09:00,1.8,��쐼,3,��,23,92.2,0,0,0,0,0,0,995.1,1008.5
2022-06-20T02:00:00+09:00,1.8,��쐼,2.8,��쐼,23,92.3,0,0,0,0,0,0,995.1,1008.5
2022-06-20T02:01:00+09:00,1.8,��쐼,2.8,��쐼,23,92.2,0,0,0,0,0,0,995.2,1008.6
2022-06-20T02:02:00+09:00,1.8,��쐼,2.8,��쐼,23.1,92.3,0,0,0,0,0,0,995.2,1008.6
2022-06-20T02:03:00+09:00,1.7,��쐼,2.8,��쐼,23.1,92.1,0,0,0,0,0,0,995.2,1008.6
2022-06-20T02:04:00+09:00,1.7,��쐼,2.8,��쐼,23.1,92.1,0,0,0,0,0,0,995.2,1008.6
2022-06-20T02:05:00+09:00,1.6,��쐼,2.8,��쐼,23.1,91.8,0,0,0,0,0,0,995.2,1008.6
2022-06-20T02:06:00+09:00,1.5,��쐼,2.8,��쐼,23,91.7,0,0,0,0,0,0,995.2,1008.6
2022-06-20T02:07:00+09:00,1.4,��쐼,2.6,��쐼,23,91.8,0,0,0,0,0,0,995.2,1008.6
2022-06-20T02:08:00+09:00,1.4,��쐼,2.5,��,23,91.9,0,0,0,0,0,0,995.2,1008.6
2022-06-20T02:09:00+09:00,1.4,��쐼,2.5,��,23.1,92,0,0,0,0,0,0,995.1,1008.5
2022-06-20T02:10:00+09:00,1.3,��쐼,2.5,��,23.1,92.3,0,0,0,0,0,0,995.1,1008.5
2022-06-20T02:11:00+09:00,1.3,��쐼,2.5,��,23.1,91.8,0,0,0,0,0,0,995.1,1008.5
2022-06-20T02:12:00+09:00,1.3,��쐼,2.5,��,23,91.6,0,0,0,0,0,0,995.1,1008.5
2022-06-20T02:13:00+09:00,1.2,��쐼,2.5,��,23,91.7,0,0,0,0,0,0,995.1,1008.5
2022-06-20T02:14:00+09:00,1.2,��쐼,2.5,��,23,91.7,0,0,0,0,0,0,995.1,1008.5
2022-06-20T02:15:00+09:00,1.2,��쐼,2.5,��,23.1,91.9,0,0,0,0,0,0,995.1,1008.5
2022-06-20T02:16:00+09:00,1.2,��쐼,2.5,��,23.2,92.1,0,0,0,0,0,0,995.2,1008.6
2022-06-20T02:17:00+09:00,1.2,��쐼,2.4,��쐼,23.1,91.8,0,0,0,0,0,0,995.2,1008.6
2022-06-20T02:18:00+09:00,1,��쐼,2,��쐼,23.1,91.7,0,0,0,0,0,0,995.2,1008.6
2022-06-20T02:19:00+09:00,0.9,��쐼,1.9,��쐼,23.1,91.5,0,0,0,0,0,0,995.2,1008.6
2022-06-20T02:20:00+09:00,0.9,��쐼,1.9,��쐼,23,91.3,0,0,0,0,0,0,995.1,1008.5
2022-06-20T02:21:00+09:00,0.9,��쐼,1.9,��쐼,23,91.6,0,0,0,0,0,0,995.2,1008.6
2022-06-20T02:22:00+09:00,0.8,��쐼,1.9,��,22.9,91.7,0,0,0,0,0,0,995.2,1008.6
2022-06-20T02:23:00+09:00,0.8,��,1.9,��,22.9,91.8,0,0,0,0,0,0,995.1,1008.5
2022-06-20T02:24:00+09:00,0.7,��,1.9,��,22.9,92,0,0,0,0,0,0,995.1,1008.5
2022-06-20T02:25:00+09:00,0.7,��,1.9,��,22.9,92.3,0,0,0,0,0,0,995.1,1008.5
2022-06-20T02:26:00+09:00,0.8,��,1.9,��,22.9,92.4,0,0,0,0,0,0,995.1,1008.5
2022-06-20T02:27:00+09:00,0.7,��,1.9,��,22.9,92.5,0,0,0,0,0,0,995.1,1008.5
2022-06-20T02:28:00+09:00,0.8,��,1.9,��,22.9,92.4,0,0,0,0,0,0,995.1,1008.5
2022-06-20T02:29:00+09:00,0.8,��,1.9,��,22.9,92.5,0,0,0,0,0,0,995,1008.4
2022-06-20T02:30:00+09:00,0.7,��,1.8,��쐼,22.9,92.5,0,0,0,0,0,0,995,1008.4
2022-06-20T02:31:00+09:00,0.7,��,1.8,��쐼,22.9,92.5,0,0,0,0,0,0,995,1008.4
2022-06-20T02:32:00+09:00,0.7,��,1.8,��쐼,22.9,92.5,0,0,0,0,0,0,995,1008.4
2022-06-20T02:33:00+09:00,0.8,��,1.8,��쐼,22.9,92.6,0,0,0,0,0,0,995,1008.4
2022-06-20T02:34:00+09:00,0.8,��,1.8,��쐼,22.9,92.7,0,0,0,0,0,0,995,1008.4
2022-06-20T02:35:00+09:00,0.8,��쐼,1.8,��,22.9,92.8,0,0,0,0,0,0,995,1008.4
2022-06-20T02:36:00+09:00,0.9,��쐼,2.5,��,22.9,92.8,0,0,0,0,0,0,995,1008.4
2022-06-20T02:37:00+09:00,0.9,��쐼,2.5,��,22.9,92.7,0,0,0,0,0,0,995,1008.4
2022-06-20T02:38:00+09:00,1,��쐼,2.5,��,23,92.8,0,0,0,0,0,0,995,1008.4
2022-06-20T02:39:00+09:00,1,��쐼,2.5,��,23,92.8,0,0,0,0,0,0,995,1008.4
2022-06-20T02:40:00+09:00,1,��쐼,2.5,��,23.1,92.8,0,0,0,0,0,0,995,1008.4
2022-06-20T02:41:00+09:00,1,��쐼,2.5,��,23.1,92.6,0,0,0,0,0,0,995,1008.4
2022-06-20T02:42:00+09:00,1.1,��쐼,2.5,��,23.1,92.3,0,0,0,0,0,0,995,1008.4
2022-06-20T02:43:00+09:00,1.1,��쐼,2.5,��,23.1,91.8,0,0,0,0,0,0,995,1008.4
2022-06-20T02:44:00+09:00,1.2,��쐼,2.6,��쐼,23,91.8,0,0,0,0,0,0,995,1008.4
2022-06-20T02:45:00+09:00,1.2,��쐼,2.6,��쐼,23,92,0,0,0,0,0,0,995,1008.4
2022-06-20T02:46:00+09:00,1.2,��쐼,2.6,��쐼,22.9,92.1,0,0,0,0,0,0,994.9,1008.3
2022-06-20T02:47:00+09:00,1.1,��쐼,2.6,��쐼,22.7,91.8,0,0,0,0,0,0,994.9,1008.3
2022-06-20T02:48:00+09:00,1.1,��쐼,2.6,��쐼,22.7,91.9,0,0,0,0,0,0,994.9,1008.3
2022-06-20T02:49:00+09:00,1.1,�쐼,2.6,��쐼,22.6,92.4,0,0,0,0,0,0,994.9,1008.3
2022-06-20T02:50:00+09:00,1.1,�쐼,2.6,��쐼,22.7,92.7,0,0,0,0,0,0,994.9,1008.3
2022-06-20T02:51:00+09:00,1,�쐼,2.6,��쐼,22.7,93.2,0,0,0,0,0,0,994.9,1008.3
2022-06-20T02:52:00+09:00,0.9,�쐼,2.6,��쐼,22.8,93.5,0,0,0,0,0,0,994.9,1008.3
2022-06-20T02:53:00+09:00,0.8,�쐼,2.6,��쐼,22.8,93.1,0,0,0,0,0,0,994.9,1008.3
2022-06-20T02:54:00+09:00,0.7,�쐼,1.7,��,22.9,93.4,0,0,0,0,0,0,994.9,1008.3
2022-06-20T02:55:00+09:00,0.7,�쐼,1.7,��,22.9,93.4,0,0,0,0,0,0,994.9,1008.3
2022-06-20T02:56:00+09:00,0.8,�쐼,2.3,��,22.9,93.3,0,0,0,0,0,0,994.9,1008.3
2022-06-20T02:57:00+09:00,0.7,��쐼,2.3,��,22.9,93.2,0,0,0,0,0,0,994.8,1008.2
2022-06-20T02:58:00+09:00,0.8,��쐼,2.3,��,22.9,93.3,0,0,0,0,0,0,994.8,1008.2
2022-06-20T02:59:00+09:00,0.9,��쐼,2.3,��,22.9,93.1,0,0,0,0,0,0,994.8,1008.2
2022-06-20T03:00:00+09:00,1,��쐼,2.3,��,22.9,93.1,0,0,0,0,0,0,994.8,1008.2
2022-06-20T03:01:00+09:00,1,��쐼,2.3,��,22.9,93.4,0,0,0,0,0,0,994.7,1008.1
2022-06-20T03:02:00+09:00,1.1,��쐼,2.3,��,23,93.4,0,0,0,0,0,0,994.8,1008.2
2022-06-20T03:03:00+09:00,1.1,��쐼,2.3,��,22.9,93.2,0,0,0,0,0,0,994.8,1008.2
2022-06-20T03:04:00+09:00,1.1,��쐼,2.3,��,22.8,92.8,0,0,0,0,0,0,994.8,1008.2
2022-06-20T03:05:00+09:00,1.1,��쐼,2.3,��,23,92.9,0,0,0,0,0,0,994.8,1008.2
2022-06-20T03:06:00+09:00,1,��쐼,2.2,��,22.9,92.8,0,0,0,0,0,0,994.8,1008.2
2022-06-20T03:07:00+09:00,1,��쐼,2.2,��,22.8,92.3,0,0,0,0,0,0,994.8,1008.2
2022-06-20T03:08:00+09:00,1,�쐼,2.2,��,22.7,91.6,0,0,0,0,0,0,994.8,1008.2
2022-06-20T03:09:00+09:00,0.9,�쐼,2.2,��,23,92.7,0,0,0,0,0,0,994.8,1008.2
2022-06-20T03:10:00+09:00,0.8,�쐼,1.6,��쐼,22.8,92.3,0,0,0,0,0,0,994.9,1008.3
2022-06-20T03:11:00+09:00,0.8,�쐼,1.6,��쐼,22.7,91.6,0,0,0,0,0,0,994.9,1008.3
2022-06-20T03:12:00+09:00,0.8,�쐼,1.6,�쐼,22.7,92.1,0,0,0,0,0,0,994.9,1008.3
2022-06-20T03:13:00+09:00,0.8,�쐼,1.6,�쐼,22.8,92.7,0,0,0,0,0,0,994.8,1008.2
2022-06-20T03:14:00+09:00,0.8,���쐼,1.6,�쐼,22.6,92.1,0,0,0,0,0,0,994.8,1008.2
2022-06-20T03:15:00+09:00,0.7,���쐼,1.6,�쐼,22.6,92.4,0,0,0,0,0,0,994.8,1008.2
2022-06-20T03:16:00+09:00,0.7,���쐼,1.6,�쐼,22.6,92.8,0,0,0,0,0,0,994.8,1008.2
2022-06-20T03:17:00+09:00,0.6,���쐼,1.6,�쐼,22.9,93.6,0,0,0,0,0,0,994.8,1008.2
2022-06-20T03:18:00+09:00,0.6,���쐼,1.6,�쐼,22.9,93.2,0,0,0,0,0,0,994.8,1008.2
2022-06-20T03:19:00+09:00,0.5,���쐼,1.6,�쐼,23,93.3,0,0,0,0,0,0,994.8,1008.2
2022-06-20T03:20:00+09:00,0.5,��,1.6,�쐼,23.1,93,0,0,0,0,0,0,994.8,1008.2
2022-06-20T03:21:00+09:00,0.5,��,1.6,�쐼,23,92.5,0,0,0,0,0,0,994.8,1008.2
2022-06-20T03:22:00+09:00,0.4,��,1.2,��,23.2,92.4,0,0,0,0,0,0,994.8,1008.2
2022-06-20T03:23:00+09:00,0.3,��,1.1,���쐼,23.2,92.1,0,0,0,0,0,0,994.8,1008.2
2022-06-20T03:24:00+09:00,0.2,�É�,0.9,���쐼,23.2,91.4,0,0,0,0,0,0,994.8,1008.2
2022-06-20T03:25:00+09:00,0.2,�É�,0.6,��,23.2,91,0,0,0,0,0,0,994.8,1008.2
2022-06-20T03:26:00+09:00,0.2,�É�,0.7,��,23.3,91.2,0,0,0,0,0,0,994.8,1008.2
2022-06-20T03:27:00+09:00,0.2,�É�,0.7,��,23.2,90.7,0,0,0,0,0,0,994.8,1008.2
2022-06-20T03:28:00+09:00,0.2,�É�,0.7,��,23.2,90.8,0,0,0,0,0,0,994.8,1008.2
2022-06-20T03:29:00+09:00,0.3,���k��,0.7,��,23.2,90.7,0,0,0,0,0,0,994.7,1008.1
2022-06-20T03:30:00+09:00,0.3,���k��,0.7,��,23.1,90.5,0,0,0,0,0,0,994.7,1008.1
2022-06-20T03:31:00+09:00,0.2,�É�,0.7,��,23.1,90.4,0,0,0,0,0,0,994.7,1008.1
2022-06-20T03:32:00+09:00,0.3,�k��,0.7,��,23.1,90.8,0,0,0,0,0,0,994.7,1008.1
2022-06-20T03:33:00+09:00,0.3,�k�k��,0.8,��,23.2,91.3,0,0,0,0,0,0,994.7,1008.1
2022-06-20T03:34:00+09:00,0.4,�k�k��,0.8,��,23.1,90.9,0,0,0,0,0,0,994.7,1008.1
2022-06-20T03:35:00+09:00,0.4,�k,0.8,��,23.1,91.2,0,0,0,0,0,0,994.7,1008.1
2022-06-20T03:36:00+09:00,0.3,�k�k��,0.8,��,23.1,91.5,0,0,0,0,0,0,994.7,1008.1
2022-06-20T03:37:00+09:00,0.3,�k��,0.8,��,23.1,91.5,0,0,0,0,0,0,994.7,1008.1
2022-06-20T03:38:00+09:00,0.3,���k��,0.8,��,23.1,91.6,0,0,0,0,0,0,994.8,1008.2
2022-06-20T03:39:00+09:00,0.3,���k��,0.8,��,23.1,91.7,0,0,0,0,0,0,994.8,1008.2
2022-06-20T03:40:00+09:00,0.3,���k��,0.8,��,23,91.9,0,0,0,0,0,0,994.8,1008.2
2022-06-20T03:41:00+09:00,0.3,���k��,0.8,��,23.1,92.2,0,0,0,0,0,0,994.8,1008.2
2022-06-20T03:42:00+09:00,0.3,���k��,1,��,23.1,92.3,0,0,0,0,0,0,994.8,1008.2
2022-06-20T03:43:00+09:00,0.4,�k��,1.2,��,23,92.3,0,0,0,0,0,0,994.8,1008.2
2022-06-20T03:44:00+09:00,0.4,�k�k��,1.2,��,23,92.3,0,0,0,0,0,0,994.8,1008.2
2022-06-20T03:45:00+09:00,0.4,�k,1.2,��,22.9,91.8,0,0,0,0,0,0,994.8,1008.2
2022-06-20T03:46:00+09:00,0.4,�k,1.2,��,23,92.2,0,0,0,0,0,0,994.8,1008.2
2022-06-20T03:47:00+09:00,0.4,�k,1.7,�k��,23.1,92.8,0,0,0,0,0,0,994.8,1008.2
2022-06-20T03:48:00+09:00,0.5,�k,1.7,�k��,23.2,92.9,0,0,0,0,0,0,994.8,1008.2
2022-06-20T03:49:00+09:00,0.6,�k,1.7,�k��,23.1,92.4,0,0,0,0,0,0,994.8,1008.2
2022-06-20T03:50:00+09:00,0.6,�k,1.7,�k��,23,91.5,0,0,0,0,0,0,994.7,1008.1
2022-06-20T03:51:00+09:00,0.6,�k,1.7,�k��,23.1,91.9,0,0,0,0,0,0,994.7,1008.1
2022-06-20T03:52:00+09:00,0.6,�k,1.7,�k��,23.1,92.1,0,0,0,0,0,0,994.7,1008.1
2022-06-20T03:53:00+09:00,0.5,�k,1.7,�k��,23.1,91.9,0,0,0,0,0,0,994.8,1008.2
2022-06-20T03:54:00+09:00,0.5,�k�k��,1.7,�k��,23,91.7,0,0,0,0,0,0,994.7,1008.1
2022-06-20T03:55:00+09:00,0.4,�k,1.7,�k��,23,92.1,0,0,0,0,0,0,994.7,1008.1
2022-06-20T03:56:00+09:00,0.4,�k�k��,1.7,�k��,23.1,92.6,0,0,0,0,0,0,994.7,1008.1
2022-06-20T03:57:00+09:00,0.4,�k,1.6,�k��,23.2,92.9,0,0,0,0,0,0,994.8,1008.2
2022-06-20T03:58:00+09:00,0.2,�É�,1.4,�k�k��,23.2,92.8,0,0,0,0,0,0,994.7,1008.1
2022-06-20T03:59:00+09:00,0.1,�É�,0.7,�k��,23.1,92.5,0,0,0,0,0,0,994.7,1008.1
2022-06-20T04:00:00+09:00,0.1,�É�,0.7,�k��,23.2,92.6,0,0,0,0,0,0,994.7,1008.1
2022-06-20T04:01:00+09:00,0.1,�É�,0.5,��,23.2,92.6,0,0,0,0,0,0,994.7,1008.1
2022-06-20T04:02:00+09:00,0.1,�É�,0.5,��,23.1,92.2,0,0,0,0,0,0,994.7,1008.1
2022-06-20T04:03:00+09:00,0.1,�É�,0.5,��,23.1,92,0,0,0,0,0,0,994.7,1008.1
2022-06-20T04:04:00+09:00,0.1,�É�,0.5,��,23.1,92.1,0,0,0,0,0,0,994.7,1008.1
2022-06-20T04:05:00+09:00,0.1,�É�,0.5,��,23.1,92.1,0,0,0,0,0,0,994.7,1008.1
2022-06-20T04:06:00+09:00,0.1,�É�,0.5,��,22.8,91.6,0,0,0,0,0,0,994.7,1008.1
2022-06-20T04:07:00+09:00,0.1,�É�,1.2,���k��,22.8,91.9,0,0,0,0,0,0,994.7,1008.1
2022-06-20T04:08:00+09:00,0.2,�É�,1.3,��,22.9,92.9,0,0,0,0,0,0,994.8,1008.2
2022-06-20T04:09:00+09:00,0.3,���k��,1.3,��,22.8,93,0,0,0,0,0,0,994.8,1008.2
2022-06-20T04:10:00+09:00,0.4,�k��,1.5,���쐼,22.8,92.9,0,0,0,0,0,0,994.8,1008.2
2022-06-20T04:11:00+09:00,0.5,�k��,2.2,��,22.8,92.9,0,0,0,0,0,0,994.8,1008.2
2022-06-20T04:12:00+09:00,0.7,���k��,2.3,��,22.6,92.7,0,0,0,0,0,0,994.8,1008.2
2022-06-20T04:13:00+09:00,0.9,��,2.3,��,22.5,92.5,0,0,0,0,0,0,994.9,1008.3
2022-06-20T04:14:00+09:00,1.1,��,2.3,��,22.5,92.6,0,0,0,0,0,0,994.9,1008.3
2022-06-20T04:15:00+09:00,1.2,��,2.3,��,22.5,93,0,0,0,0,0,0,994.9,1008.3
2022-06-20T04:16:00+09:00,1.4,��,2.3,��,22.5,93,0,0,0,0,0,0,994.9,1008.3
2022-06-20T04:17:00+09:00,1.5,��,2.3,��,22.5,93,0,0,0,0,0,0,994.9,1008.3
2022-06-20T04:18:00+09:00,1.6,��,2.3,��,22.4,93,0,0,0,0,0,0,994.9,1008.3
2022-06-20T04:19:00+09:00,1.7,��,2.3,��,22.4,93.2,0,0,0,0,0,0,994.9,1008.3
2022-06-20T04:20:00+09:00,1.8,��,2.3,��,22.4,93.3,0,0,0,0,0,0,994.9,1008.3
2022-06-20T04:21:00+09:00,1.8,��,2.3,��,22.4,93.1,0,0,0,0,0,0,994.9,1008.3
2022-06-20T04:22:00+09:00,1.8,��,2.3,��,22.4,93.2,0,0,0,0,0,0,995,1008.4
2022-06-20T04:23:00+09:00,1.7,��,2.3,��,22.3,93.2,0,0,0,0,0,0,995,1008.4
2022-06-20T04:24:00+09:00,1.7,��,2.3,��,22.4,93.3,0,0,0,0,0,0,995,1008.4
2022-06-20T04:25:00+09:00,1.7,��,2.3,��,22.4,93.4,0,0,0,0,0,0,995,1008.4
2022-06-20T04:26:00+09:00,1.7,��,2.3,��,22.4,93.5,0,0,0,0,0,0,995,1008.4
2022-06-20T04:27:00+09:00,1.6,��,2.3,��,22.4,93.6,0,0,0,0,0,0,995,1008.4
2022-06-20T04:28:00+09:00,1.6,��,2.3,��,22.5,93.6,0,0,0,0,0,0,995,1008.4
2022-06-20T04:29:00+09:00,1.5,��,2.3,��,22.4,93.1,0,0,0,0,0,0,994.9,1008.3
2022-06-20T04:30:00+09:00,1.5,��,2.3,��,22.4,92.9,0,0,0,0,0,0,995,1008.4
2022-06-20T04:31:00+09:00,1.4,��,2.1,��,22.3,92.9,0,0,0,0,0,0,995,1008.4
2022-06-20T04:32:00+09:00,1.4,��,2.1,��,22.4,93.1,0,0,0,0,0,0,995,1008.4
2022-06-20T04:33:00+09:00,1.4,��,2.1,��,22.5,93.4,0,0,0,0,0,0,995,1008.4
2022-06-20T04:34:00+09:00,1.4,��,1.9,��,22.6,93.6,0,0,0,0,0,0,995,1008.4
2022-06-20T04:35:00+09:00,1.3,��,1.7,��,22.6,93.2,0,0,0,0,0,0,995,1008.4
2022-06-20T04:36:00+09:00,1.3,��,1.7,��,22.5,92.5,0,0,0,0,0,0,995.1,1008.5
2022-06-20T04:37:00+09:00,1.3,��,2.1,��,22.5,92.1,0,0,0,0,0,0,995.1,1008.5
2022-06-20T04:38:00+09:00,1.4,��,2.2,��,22.4,92.3,0,0,0,0,0,0,995.1,1008.5
2022-06-20T04:39:00+09:00,1.4,��,2.2,��,22.4,92.4,0,0,0,0,0,0,995.1,1008.5
2022-06-20T04:40:00+09:00,1.5,��,2.2,��,22.4,92.7,0,0,0,0,0,0,995.1,1008.5
2022-06-20T04:41:00+09:00,1.6,��,2.2,��,22.5,92.8,0,0,0,0,0,0,995.1,1008.5
2022-06-20T04:42:00+09:00,1.6,��,2.2,��,22.4,92.7,0,0,0,0,0,0,995.1,1008.5
2022-06-20T04:43:00+09:00,1.6,��,2.2,��,22.5,92.9,0,0,0,0,0,0,995,1008.4
2022-06-20T04:44:00+09:00,1.6,��,2.2,��,22.5,93,0,0,0,0,0,0,995,1008.4
2022-06-20T04:45:00+09:00,1.5,��,2.2,��,22.5,92.5,0,0,0,0,0,0,995,1008.4
2022-06-20T04:46:00+09:00,1.5,��,2.2,��,22.4,92.4,0,0,0,0,0,0,995,1008.4
2022-06-20T04:47:00+09:00,1.5,��,2.3,��,22.4,92.6,0,0,0,0,0,0,995,1008.4
2022-06-20T04:48:00+09:00,1.5,��,2.6,��,22.3,92.9,0,0,0,0,0,0,995,1008.4
2022-06-20T04:49:00+09:00,1.5,��,2.6,��,22.3,92.9,0,0,0,0,0,0,995,1008.4
2022-06-20T04:50:00+09:00,1.5,��,2.6,��,22.3,93.2,0,0,0,0,0,0,995,1008.4
2022-06-20T04:51:00+09:00,1.4,��,2.6,��,22.4,93.5,0,0,0,0,0,0,995,1008.4
2022-06-20T04:52:00+09:00,1.4,��,2.6,��,22.3,93.4,0,0,0,0,0,0,995,1008.4
2022-06-20T04:53:00+09:00,1.5,��,3.1,��,22.3,93.3,0,0,0,0,0,0,995.1,1008.5
2022-06-20T04:54:00+09:00,1.6,��,3.1,��,22.2,93.5,0,0,0,0,0,0,995.1,1008.5
2022-06-20T04:55:00+09:00,1.7,��,3.1,��,22.2,93.7,0,0,0,0,0,0,995.1,1008.5
2022-06-20T04:56:00+09:00,1.9,��,3.1,��,22.2,94,0,0,0,0,0,0,995.1,1008.5
2022-06-20T04:57:00+09:00,1.9,��,3.1,��,22.2,94.2,0,0,0,0,0,0,995.1,1008.5
2022-06-20T04:58:00+09:00,2,��,3.1,��,22.2,94.3,0,0,0,0,0,0,995,1008.4
2022-06-20T04:59:00+09:00,2,��,3.1,��,22.2,94.2,0,0,0,0,0,0,995,1008.4
2022-06-20T05:00:00+09:00,2,��,3.1,��,22.2,94.2,0,0,0,0,0,0,995,1008.4
2022-06-20T05:01:00+09:00,2.1,���쐼,3.1,��,22.2,94.3,0,0,0,0,0,0,995,1008.4
2022-06-20T05:02:00+09:00,2.2,���쐼,3.1,��,22.2,94.3,0,0,0,0,0,0,995,1008.4
2022-06-20T05:03:00+09:00,2.2,���쐼,2.9,���쐼,22.2,94.4,0,0,0,0,0,0,995,1008.4
2022-06-20T05:04:00+09:00,2.2,���쐼,2.9,���쐼,22.3,94.5,0,0,0,0,0.01,0,995,1008.4
2022-06-20T05:05:00+09:00,2.2,���쐼,2.9,���쐼,22.3,94.3,0,0,0,0,0.01,0,995,1008.4
2022-06-20T05:06:00+09:00,2.1,���쐼,2.9,���쐼,22.3,94,0,0,0,0,0.01,0,995,1008.4
2022-06-20T05:07:00+09:00,2,���쐼,2.9,���쐼,22.3,94.1,0,0,0,0,0.01,0,995,1008.4
2022-06-20T05:08:00+09:00,1.9,���쐼,2.9,���쐼,22.3,93.8,0,0,0,0,0.01,0,995,1008.4
2022-06-20T05:09:00+09:00,1.8,���쐼,2.9,���쐼,22.3,93.7,0,0,0,0,0.01,0,995,1008.4
2022-06-20T05:10:00+09:00,1.8,���쐼,2.9,���쐼,22.3,93.8,0,0,0,0,0.01,0,995,1008.4
2022-06-20T05:11:00+09:00,1.8,��,2.9,���쐼,22.3,93.9,0,0,0,0,0.01,0,995,1008.4
2022-06-20T05:12:00+09:00,1.7,��,2.9,���쐼,22.5,94.2,0,0,0,0,0.01,0,995,1008.4
2022-06-20T05:13:00+09:00,1.7,��,2.9,���쐼,22.5,93.9,0,0,0,0,0.02,0,995,1008.4
2022-06-20T05:14:00+09:00,1.5,��,2.9,���쐼,22.4,93.4,0,0,0,0,0.02,0,995,1008.4
2022-06-20T05:15:00+09:00,1.4,���k��,2.3,�쐼,22.4,93.1,0,0,0,0,0.02,0,995,1008.4
2022-06-20T05:16:00+09:00,1.3,���k��,2.1,���k��,22.5,93.4,0,0,0,0,0.02,0,995,1008.4
2022-06-20T05:17:00+09:00,1.2,�k��,2.1,���k��,22.5,93.6,0,0,0,0,0.02,0,995,1008.4